Regional Weather Roundup
Issued by NWS Kansas City/Pleasant Hill, MO

Home | Current Version | Previous Version | Text Only | Print | Product List | Glossary On
Versions: 1 2 3 4 5 6 7 8 9 10 11 12 13 14 15 16 17 18 19 20 21 22 23 24 25 26 27 28 29 30 31 32 33 34 35 36 37 38 39 40 41 42 43 44 45 46 47 48 49 50
824
ASUS43 KEAX 271810
RWREAX

WEATHER ROUNDUP FOR EASTERN KANSAS AND NORTHWEST MISSOURI
NATIONAL WEATHER SERVICE KANSAS CITY/PLEASANT HILL MO
100 PM CDT TUE JUN 27 2017

KSZ040-057-103>105-MOZ028-029-037-043-271900-
...KANSAS CITY METROPOLITAN AREA...

CITY           SKY/WX    TMP DP  RH WIND       PRES   REMARKS
K.C. INTL      PTSUNNY   76  62  62 SE13      30.05F
6HR MIN TEMP:  58; 6HR MAX TEMP:  76;

K.C. DOWNTOWN  MOSUNNY   78  61  55 SE12G20   30.04F
6HR MIN TEMP:  60; 6HR MAX TEMP:  79;

LEES SUMMIT    SUNNY     76  61  59 SE13      30.06F
6HR MIN TEMP:  58; 6HR MAX TEMP:  77;

OLATHE - IXD   MOSUNNY   77  63  61 SE12      30.04F
6HR MIN TEMP:  58; 6HR MAX TEMP:  77;

OLATHE - OJC   SUNNY     76  63  64 S10       30.05F
6HR MIN TEMP:  58; 6HR MAX TEMP:  76;

LAWRENCE       MOSUNNY   78  64  61 SE16G22   30.03F

$$

MOZ001>008-011>017-020>025-030>033-038>040-044>046-053-054-271900-
...NORTHERN AND CENTRAL MISSOURI...

CITY           SKY/WX    TMP DP  RH WIND       PRES   REMARKS
ST. JOSEPH     SUNNY     75  63  66 SE14      30.04F
6HR MIN TEMP:  54; 6HR MAX TEMP:  76;

MOSBY          CLEAR     73  57  56 S10G18    30.07F
WARRENSBURG    SUNNY     77  61  57 SE13      30.08F
WHITEMAN AFB   MOSUNNY   76  65  69 S8        30.07F
6HR MIN TEMP:  58; 6HR MAX TEMP:  76;

CLINTON        SUNNY     77  64  65 SE8       30.08F
SEDALIA        SUNNY     77  64  64 SE8       30.10F
6HR MIN TEMP:  58; 6HR MAX TEMP:  78;

WARSAW         NOT AVBL
CHILLICOTHE      N/A     76  58  53 S9G16     30.09F
6HR MIN TEMP:  55; 6HR MAX TEMP:  77;

KIRKSVILLE     SUNNY     76  54  46 VRB7      30.10F
6HR MIN TEMP:  57; 6HR MAX TEMP:  76;


$$

MOZ041-047>049-056>058-063>065-088>090-097-271900-
...EASTERN AND SOUTHERN MISSOURI...

CITY           SKY/WX    TMP DP  RH WIND       PRES   REMARKS
ST. LOUIS INTL MOSUNNY   77  51  40 E6        30.13F
6HR MIN TEMP:  63; 6HR MAX TEMP:  80;

SPIRIT OF STL  MOSUNNY   77  54  44 SE9       30.11F
COLUMBIA       SUNNY     76  58  53 S6        30.12F
JEFFERSON CITY SUNNY     75  58  55 SE9       30.10F
ROLLA          SUNNY     75  57  53 MISG      30.11
OSAGE BEACH    MOSUNNY   75  60  59 S6        30.12F
SPRINGFIELD    SUNNY     77  65  66 SE8       30.09F
BRANSON        PTSUNNY   79  63  57 E7        30.11F
JOPLIN         MOSUNNY   82  69  64 SE5       30.06F
WEST PLAINS    PTSUNNY   74  60  61 SE7       30.14S

$$

IAZ060-094-KSZ022-034>040-054-083-096-NEZ052-066-093-271900-
...KANSAS...SOUTHEAST NEBRASKA AND IOWA...

CITY           SKY/WX    TMP DP  RH WIND       PRES   REMARKS
TOPEKA         PTSUNNY   77  66  68 SE13      30.01F
6HR MIN TEMP:  59; 6HR MAX TEMP:  77;

MANHATTAN      PTSUNNY   77  65  66 SE14      29.99F
EMPORIA        PTSUNNY   76  68  76 S13G18    30.01S
CHANUTE        CLOUDY    82  68  62 SE9       30.02F
WICHITA        MOSUNNY   85  71  63 S13G21    29.96F HX  90
OMAHA          PTSUNNY   77  58  51 S21G26    30.00F
LINCOLN        SUNNY     77  61  57 SE17      29.98F
FALLS CITY     MOSUNNY   76  62  62 S16G24    30.02F
LAMONI         SUNNY     75  55  49 SE9G16    30.07F
DES MOINES     MOSUNNY   74  46  36 S10       30.06F

$$





USA.gov is the U.S. government's official web portal to all federal, state and local government web resources and services.